{"data":{"norad_id":63511,"epoch":"2026-09-20T10:33:20.085984Z","epoch_age_seconds":160889,"freshness":"FRESH","line1":"1 63511U 25071U   26263.43981581  .00020739  00000+0  67796-3 0  9997","line2":"2 63511  53.1603 314.1168 0001138 102.0305 258.0824 15.31711851 82231","mean_motion":15.31711851,"eccentricity":0.0001138,"inclination_deg":53.1603,"raan_deg":314.1168,"arg_perigee_deg":102.0305,"mean_anomaly_deg":258.0824,"bstar":0.00067796,"rev_number":8223,"period_min":94.012460572129,"perigee_km":469.92527005725,"apogee_km":471.48406642094,"semimajor_km":6848.8416682391,"source":"CELESTRAK","updated_at":"2026-09-21T09:00:35.016936Z"}}